Overview Statistics Trail Chart Weather Telemetry Raw packets
 

This is the latest recevied weather packets stored in our database for station/object N5ATR. If no packets are shown the sender has not sent any weather packets the latest 10 day(s).

<< 64 65 66 67 68 69 70 >>
Time Temp. Humidity Pressure Rain* Wind** Luminosity Snow
1788237574 15° C 85% 1023.3 hPa 0 mm - 0 W/m² -
1788237270 15° C 88% 1023.3 hPa 0 mm - 0 W/m² -
1788236970 15° C 85% 1023.3 hPa 0 mm - 0 W/m² -
1788236670 14.44° C 86% 1023.5 hPa 0 mm - 0 W/m² -
1788236365 14.44° C 88% 1023.3 hPa 0 mm - 0 W/m² -
1788236060 14.44° C 92% 1023.3 hPa 0 mm - 0 W/m² -
1788235759 14.44° C 92% 1023.8 hPa 0 mm - 0 W/m² -
1788235455 14.44° C 93% 1023.6 hPa 0 mm - 0 W/m² -
1788235154 14.44° C 93% 1024.1 hPa 0 mm - 0 W/m² -
1788234853 14.44° C 93% 1024.4 hPa 0 mm - 0 W/m² -
1788234551 14.44° C 94% 1024.2 hPa 0 mm - 0 W/m² -
1788234246 14.44° C 94% 1024.2 hPa 0 mm - 0 W/m² -
1788233941 14.44° C 94% 1024.1 hPa 0 mm - 0 W/m² -
1788233641 14.44° C 94% 1024.5 hPa 0 mm - 0 W/m² -
1788233339 14.44° C 94% 1024.5 hPa 0 mm - 0 W/m² -
1788233039 14.44° C 93% 1024.4 hPa 0 mm - 0 W/m² -
1788232734 14.44° C 93% 1024.2 hPa 0 mm - 0 W/m² -
1788232430 14.44° C 93% 1024.6 hPa 0 mm - 0 W/m² -
1788232129 14.44° C 92% 1024.5 hPa 0 mm - 0 W/m² -
1788231825 14.44° C 92% 1024.5 hPa 0 mm - 0 W/m² -
1788231523 14.44° C 92% 1024.4 hPa 0 mm - 0 W/m² -
1788231219 14.44° C 91% 1024.2 hPa 0 mm - 0 W/m² -
1788230919 15° C 90% 1024.2 hPa 0 mm - 0 W/m² -
1788230618 15° C 88% 1024.4 hPa 0 mm - 0 W/m² -
1788230316 15.56° C 82% 1024.2 hPa 0 mm - 0 W/m² -

* Rain latest hour (hover to see other rain measurements)
** Current wind speed in m/s (hover to see current wind gust speed)